TimeMST,TemperatureF,Dew PointF,Humidity,Sea Level PressureIn,VisibilityMPH,Wind Direction,Wind SpeedMPH,Gust SpeedMPH,PrecipitationIn,Events,Conditions,WindDirDegrees,DateUTC
12:53 AM,51.1,42.1,71,29.92,10.0,SE,8.1,-,N/A,,Clear,140,2011-11-18 07:53:00
1:53 AM,48.9,43.0,80,29.92,10.0,SSE,4.6,-,N/A,,Clear,150,2011-11-18 08:53:00
2:53 AM,50.0,41.0,71,29.99,10.0,SE,8.1,-,N/A,,Clear,140,2011-11-18 09:53:00
3:53 AM,48.9,39.9,71,29.91,10.0,SSE,6.9,-,N/A,,Clear,150,2011-11-18 10:53:00
4:53 AM,50.0,39.9,68,29.91,10.0,SE,9.2,-,N/A,,Clear,140,2011-11-18 11:53:00
5:53 AM,48.9,39.0,69,29.92,10.0,SE,9.2,-,N/A,,Clear,130,2011-11-18 12:53:00
6:53 AM,48.0,39.0,71,29.93,10.0,SE,13.8,-,N/A,,Clear,130,2011-11-18 13:53:00
7:53 AM,51.1,39.0,63,29.94,10.0,SE,9.2,-,N/A,,Clear,140,2011-11-18 14:53:00
8:53 AM,55.4,39.2,54,30.01,10.0,SSE,9.2,-,N/A,,Clear,160,2011-11-18 15:53:00
9:53 AM,62.1,39.9,44,29.93,10.0,SSE,8.1,-,N/A,,Clear,150,2011-11-18 16:53:00
10:53 AM,66.2,39.2,37,29.99,10.0,South,5.8,-,N/A,,Clear,170,2011-11-18 17:53:00
11:53 AM,72.0,34.0,25,29.88,10.0,South,10.4,-,N/A,,Clear,170,2011-11-18 18:53:00
12:53 PM,73.9,33.1,22,29.84,10.0,Variable,6.9,-,N/A,,Clear,0,2011-11-18 19:53:00
1:53 PM,73.4,32.0,22,29.90,10.0,Variable,3.5,-,N/A,,Clear,0,2011-11-18 20:53:00
2:53 PM,73.9,32.0,21,29.81,10.0,West,3.5,-,N/A,,Clear,280,2011-11-18 21:53:00
3:53 PM,73.9,30.0,20,29.81,10.0,West,11.5,-,N/A,,Clear,260,2011-11-18 22:53:00
4:53 PM,71.1,30.9,23,29.81,10.0,West,9.2,-,N/A,,Clear,270,2011-11-18 23:53:00
5:53 PM,66.9,34.0,30,29.82,10.0,West,5.8,-,N/A,,Clear,260,2011-11-19 00:53:00
6:53 PM,64.9,34.0,32,29.84,10.0,SSW,3.5,-,N/A,,Clear,210,2011-11-19 01:53:00
7:53 PM,63.0,35.1,35,29.85,10.0,Calm,Calm,-,N/A,,Clear,0,2011-11-19 02:53:00
8:53 PM,60.1,37.0,42,29.86,10.0,South,8.1,-,N/A,,Clear,170,2011-11-19 03:53:00
9:53 PM,57.9,37.9,47,29.86,10.0,SE,4.6,-,N/A,,Clear,130,2011-11-19 04:53:00
10:53 PM,61.0,36.0,39,29.84,10.0,SSE,10.4,-,N/A,,Clear,160,2011-11-19 05:53:00
11:53 PM,61.0,37.0,41,29.82,10.0,South,8.1,-,N/A,,Clear,170,2011-11-19 06:53:00